[[{"header":{"parameterUnit":"m.s-1","parameterCategory":2,"la1":30.2991,"la2":30.254,"lo1":-89.0895,"lo2":-89.0444,"dy":0.0017,"dx":0.0017,"nx":28,"ny":28,"refTime":"2026-02-13T03:00:00:Z","depth":"0","parameterNumber":2,"parameterNumberName":"U-component_of_CURRENTS"},"data":[0,0,0,0,0,0,0,0,0,0,0,0,0,0,0,0,0,0,0,0,0,0,0,0,0,0,0,0,0,0,0,0,0,0,0,0,0,0,0,0,0,0,0,0,0,0,0,0,0,0,0,0,0,0,0,0,0,0,0.3259,0.326,0,0.3267,0.3267,0.3267,0.3248,0.3248,0.3247,0.3247,0.3224,0.3224,0.3224,0,0,0,0,0,0,0,0,0,0,0,0,0,0.323,0.323,0.3259,0.326,0.326,0.3267,0.3267,0.3266,0.3248,0.3248,0.3247,0.3247,0.3225,0.3224,0.3224,0,0,0,0,0,0,0,0,0,0,0,0,0,0.3238,0.323,0.3259,0.3254,0.3253,0.3267,0.3267,0.3266,0.3248,0.3248,0.3247,0.3247,0.3225,0.3224,0.3224,0.3231,0,0,0.3222,0.3222,0,0,0,0,0,0,0,0,0.3237,0.3238,0.3254,0.3254,0.3254,0.3258,0.3248,0.3254,0.3248,0.3247,0.3247,0.3246,0.3235,0.3234,0.3233,0.3229,0.3228,0.3222,0.3222,0.3222,0.3222,0,0,0,0,0,0,0,0.3237,0.3238,0.3259,0.3255,0.3255,0.3252,0.3252,0.3249,0.3241,0.3247,0.3247,0.3252,0.3235,0.3233,0.3232,0.3228,0.3222,0.3222,0.3222,0.3221,0.3276,0.3278,0,0,0,0,0,0,0.3242,0.3238,0.3259,0.326,0.3248,0.3253,0.3253,0.3255,0.3242,0.324,0.3253,0.3251,0.3234,0.3233,0.3231,0.3273,0.3222,0.3221,0.3221,0.3274,0.3276,0.3278,0,0,0,0,0,0,0.3242,0.3244,0.3259,0.3251,0.3253,0.3254,0.3257,0.3256,0.326,0.3247,0.3244,0.3259,0.3234,0.3232,0.3243,0.3271,0.3221,0.3221,0.3272,0.3275,0.3277,0.3335,0,0,0,0,0,0,0.3241,0.3244,0.3245,0.3252,0.3254,0.3277,0.3257,0.3256,0.3265,0.3264,0.3251,0.3248,0.3233,0.3244,0.3242,0.3269,0.322,0.327,0.3273,0.3276,0.3331,0.3339,0.3347,0,0,0,0,0,0.3239,0.3244,0.3245,0.3248,0.3257,0.3278,0.3279,0.3275,0.3266,0.3275,0.327,0.3249,0.3263,0.3244,0.3242,0.327,0.3269,0.3273,0.3276,0.3328,0.3338,0.3346,0,0,0,0,0,0,0.3225,0.3243,0.3244,0.3252,0.327,0.3276,0.3283,0.3283,0.3285,0.3282,0.3264,0.3262,0.3287,0.3272,0.3252,0.3298,0.3266,0.3269,0.3305,0.3315,0.3322,0.335,0.322,0,0,0,0,0,0.3226,0.3237,0.3255,0.3262,0.3274,0.3281,0.3287,0.329,0.3295,0.3295,0.3288,0.3288,0.3302,0.3302,0.3308,0.3325,0.3372,0.3345,0.3353,0.3359,0.3383,0.3472,0.349,0.3291,0.3291,0.3291,0,0,0.3222,0.3234,0.3239,0.3261,0.3272,0.3297,0.3283,0.3302,0.3324,0.3293,0.3314,0.3315,0.3315,0.3341,0.3351,0.3329,0.3448,0.3364,0.337,0.339,0.3478,0.3498,0.3515,0.3294,0.3293,0.3293,0,0,0.3228,0.3234,0.325,0.3271,0.3297,0.3309,0.3319,0.3336,0.3345,0.3367,0.3361,0.3385,0.3384,0.3403,0.3409,0.3465,0.3491,0.3461,0.3515,0.3601,0.3619,0.3634,0.3752,0.3777,0.3458,0.3459,0.3459,0,0.3222,0.3245,0.3259,0.3284,0.3306,0.3319,0.3348,0.3364,0.3382,0.341,0.3381,0.3435,0.3421,0.3484,0.3498,0.3484,0.3548,0.3474,0.3613,0.3629,0.3644,0.3761,0.3788,0.3462,0.3462,0.3461,0.3461,0,0.3245,0.3267,0.3281,0.332,0.3346,0.3373,0.3405,0.3432,0.3441,0.3468,0.3529,0.3524,0.3565,0.3558,0.3538,0.3641,0.366,0.3617,0.359,0.3668,0.3786,0.3814,0.3467,0.3465,0.3464,0.3464,0,0,0.3227,0.3286,0.329,0.3328,0.3369,0.3402,0.3444,0.3506,0.3574,0.3577,0.367,0.367,0.3688,0.3699,0.3689,0.3743,0.3899,0.3725,0.3728,0.3846,0.4133,0.4128,0.4158,0.3881,0.3885,0.3888,0.4183,0,0.3242,0.3301,0.3323,0.339,0.3431,0.3464,0.3519,0.3579,0.363,0.3724,0.3741,0.3825,0.3737,0.3783,0.382,0.3896,0.3971,0.3826,0.4037,0.4044,0.4032,0.4189,0.4006,0.425,0.421,0.4215,0.4218,0,0.3261,0.3303,0.3366,0.346,0.3483,0.3524,0.3642,0.3693,0.3815,0.3867,0.3937,0.3977,0.4078,0.3986,0.4149,0.4066,0.411,0.4145,0.4157,0.4152,0.4091,0.4159,0.4303,0.4172,0.4261,0.4257,0.4254,0,0.3269,0.334,0.3396,0.3422,0.3522,0.3567,0.3623,0.3738,0.383,0.3983,0.4092,0.4181,0.4281,0.4331,0.4386,0.4298,0.4582,0.4469,0.4512,0.4514,0.4401,0.4384,0.4441,0.4598,0.4597,0.4596,0.4595,0,0.3295,0.3352,0.3408,0.3448,0.3558,0.3599,0.3737,0.3817,0.3961,0.4109,0.4175,0.4327,0.4373,0.4518,0.4512,0.4639,0.4694,0.4586,0.4604,0.4418,0.4401,0.4311,0.4257,0.4607,0.4605,0.4603,0.4601,0,0.3345,0.336,0.3449,0.3534,0.3572,0.3659,0.3813,0.3913,0.4046,0.4247,0.4316,0.4511,0.4707,0.4763,0.4909,0.4841,0.4809,0.4948,0.4748,0.4736,0.4591,0.4547,0.4518,0.438,0.5057,0.5058,0.506,0,0.3402,0.3433,0.3523,0.3574,0.3624,0.3742,0.3827,0.3954,0.4062,0.4358,0.4463,0.4728,0.4894,0.5136,0.5091,0.5155,0.4937,0.5003,0.4769,0.4624,0.459,0.437,0.4237,0.4665,0.4663,0.4662,0.4661,0,0.3514,0.3518,0.3579,0.3663,0.3742,0.3853,0.397,0.4067,0.4227,0.4401,0.4638,0.4805,0.5046,0.5044,0.514,0.5122,0.476,0.4975,0.4866,0.4353,0.4078,0.3938,0.4459,0.4648,0.4649,0.465,0.4651,0.4651,0.3597,0.3644,0.367,0.3757,0.3841,0.3921,0.3971,0.4096,0.4259,0.4423,0.4642,0.4772,0.4891,0.5002,0.4979,0.4782,0.4725,0.4573,0.4565,0.4379,0.4129,0.4654,0.4818,0.482,0.4822,0.4823,0.4825,0,0.3669,0.3685,0.3762,0.3818,0.3869,0.3916,0.4027,0.4027,0.4143,0.4313,0.4456,0.4513,0.4578,0.4605,0.4517,0.4351,0.4097,0.4238,0.3853,0.3763,0.4286,0.4145,0.4118,0.4118,0.4118,0.4119,0.4119,0.4119,0.3701,0.3736,0.374,0.38,0.3835,0.3817,0.3838,0.3866,0.3933,0.396,0.3931,0.3988,0.4177,0.4302,0.4144,0.4035,0.3687,0.3567,0.3551,0.3892,0.3918,0.3943,0.3795,0.3695,0.3695,0.2801,0.2794,0.279]},{"header":{"parameterUnit":"m.s-1","parameterCategory":2,"la1":30.2991,"la2":30.254,"lo1":-89.0895,"lo2":-89.0444,"dy":0.0017,"dx":0.0017,"nx":28,"ny":28,"refTime":"2026-02-13T03:00:00:Z","depth":"0","parameterNumber":3,"parameterNumberName":"V-component_of_CURRENTS"},"data":[0,0,0,0,0,0,0,0,0,0,0,0,0,0,0,0,0,0,0,0,0,0,0,0,0,0,0,0,0,0,0,0,0,0,0,0,0,0,0,0,0,0,0,0,0,0,0,0,0,0,0,0,0,0,0,0,0,0,0.0065,0.0064,0,-0.001,-0.0011,-0.0012,-0.0063,-0.0063,-0.0064,-0.0064,-0.0129,-0.013,-0.0132,0,0,0,0,0,0,0,0,0,0,0,0,0,0.011,0.011,0.0065,0.0064,0.0063,-0.001,-0.0011,-0.0012,-0.0063,-0.0063,-0.0064,-0.0064,-0.0128,-0.013,-0.0132,0,0,0,0,0,0,0,0,0,0,0,0,0,0.0068,0.011,0.0065,0.003,0.0026,-0.0009,-0.0011,-0.0012,-0.0063,-0.0063,-0.0064,-0.0064,-0.0128,-0.013,-0.0132,-0.0137,0,0,-0.0139,-0.014,0,0,0,0,0,0,0,0,0.007,0.0066,0.0036,0.0032,0.0028,-0.0027,-0.0019,-0.0053,-0.0063,-0.003,-0.0064,-0.0064,-0.0093,-0.0098,-0.0113,-0.014,-0.0143,-0.0139,-0.014,-0.0141,-0.0142,0,0,0,0,0,0,0,0.0073,0.0068,0.0034,0.0035,0.003,-0.0001,-0.0007,-0.0026,-0.0059,-0.0033,-0.0037,-0.0043,-0.0095,-0.011,-0.0114,-0.0144,-0.0139,-0.0141,-0.0142,-0.0143,-0.0179,-0.0179,0,0,0,0,0,0,0.0088,0.0072,0.0037,0.0032,0.0049,-0.0001,-0.0008,-0.001,-0.0059,-0.0067,-0.0043,-0.0045,-0.0106,-0.0112,-0.0117,-0.0108,-0.0141,-0.0143,-0.0145,-0.0179,-0.0179,-0.0178,0,0,0,0,0,0,0.0089,0.0086,0.004,0.0051,0.0043,-0.0001,-0.0003,-0.0011,-0.0022,-0.0066,-0.0074,-0.0045,-0.0107,-0.0114,-0.0129,-0.0112,-0.0144,-0.0146,-0.018,-0.0179,-0.0179,-0.0102,0,0,0,0,0,0,0.0091,0.0087,0.0091,0.0052,0.0043,0.0032,-0.0002,-0.0012,-0.0026,-0.003,-0.0071,-0.0078,-0.0108,-0.0125,-0.0131,-0.0115,-0.0148,-0.018,-0.0179,-0.0179,-0.0105,-0.0099,-0.0094,0,0,0,0,0,0.0093,0.0108,0.0092,0.0088,0.0051,0.0033,0.0026,-0.0008,-0.0025,-0.0022,-0.0054,-0.0076,-0.0125,-0.0127,-0.0134,-0.0118,-0.018,-0.018,-0.0179,-0.0108,-0.01,-0.0094,0,0,0,0,0,0,0.013,0.0103,0.0085,0.0091,0.0068,0.0025,0.0024,0.0,-0.0024,-0.0027,-0.0071,-0.008,-0.0089,-0.0114,-0.0115,-0.0128,-0.0157,-0.0157,-0.01,-0.0093,-0.0088,-0.0065,-0.015,0,0,0,0,0,0.0141,0.0145,0.0111,0.0115,0.0108,0.0067,0.0055,0.0034,0.0006,-0.0006,-0.0037,-0.0069,-0.0091,-0.01,-0.0127,-0.0129,-0.015,-0.0125,-0.0119,-0.0114,-0.0101,-0.013,-0.0126,-0.0176,-0.0176,-0.0176,0,0,0.0155,0.0141,0.0142,0.0123,0.0102,0.0106,0.0059,0.0051,0.0054,-0.0007,-0.0011,-0.005,-0.0089,-0.0096,-0.0102,-0.0114,-0.0108,-0.0113,-0.0108,-0.0098,-0.0129,-0.0124,-0.012,-0.0175,-0.0175,-0.0175,0,0,0.0193,0.0176,0.0194,0.0182,0.0161,0.0138,0.0141,0.0104,0.0088,0.0076,0.0032,0.0006,-0.0029,-0.0054,-0.007,-0.0048,-0.008,-0.0057,-0.0005,-0.0034,-0.0029,-0.0026,-0.0029,-0.0027,-0.0051,-0.0051,-0.0051,0,0.0211,0.0229,0.0196,0.0211,0.0212,0.0161,0.0184,0.0161,0.0123,0.0119,0.0088,0.0031,-0.0007,-0.0012,-0.0009,-0.0033,-0.0048,-0.0025,-0.0025,-0.0022,-0.002,-0.0024,-0.0023,-0.0047,-0.0047,-0.0048,-0.0048,0,0.0262,0.0276,0.0287,0.0292,0.0289,0.0299,0.0269,0.0261,0.0231,0.0205,0.0183,0.012,0.0091,0.0069,0.0036,0.0036,0.0023,-0.0016,-0.0037,-0.001,-0.0017,-0.0016,-0.0042,-0.0043,-0.0044,-0.0045,0,0,0.0304,0.0322,0.0326,0.0347,0.0335,0.0342,0.035,0.0346,0.0362,0.0302,0.0317,0.0249,0.0208,0.0186,0.0134,0.0103,0.0101,0.0058,0.0054,0.0064,0.006,0.007,0.0072,0.0061,0.0061,0.0061,0.0056,0,0.0355,0.0411,0.0401,0.0454,0.0482,0.0449,0.0463,0.0451,0.043,0.0429,0.0354,0.0339,0.0256,0.0242,0.0199,0.0136,0.0103,0.0108,0.0024,0.0022,0.0035,0.0072,0.0076,0.0073,0.0056,0.0056,0.0056,0,0.0408,0.0442,0.0505,0.0545,0.0554,0.0572,0.0597,0.0608,0.0587,0.0569,0.0533,0.0472,0.043,0.0342,0.0247,0.0256,0.0166,0.01,0.0097,0.0082,0.0033,0.0038,0.0074,-0.0145,0.0056,0.0056,0.0056,0,0.0462,0.0516,0.0573,0.0585,0.0616,0.0636,0.0651,0.0648,0.0683,0.0663,0.0688,0.0601,0.0583,0.0457,0.033,0.0285,0.0232,0.0148,0.007,0.007,0.0046,0.0044,-0.0132,0.0063,0.0063,0.0063,0.0063,0,0.0521,0.0566,0.0602,0.0632,0.0706,0.0701,0.0776,0.0772,0.0799,0.0871,0.0769,0.0815,0.0607,0.055,0.0396,0.0273,0.0284,0.0098,0.0072,0.0074,0.0075,-0.014,-0.0271,0.0063,0.0063,0.0063,0.0063,0,0.0568,0.0588,0.0662,0.0711,0.0733,0.0786,0.0867,0.0925,0.0935,0.1032,0.1033,0.0987,0.0931,0.0743,0.0566,0.0385,0.0123,0.0184,0.022,0.0197,-0.0112,-0.0237,-0.0425,-0.0521,0.0083,0.0083,0.0083,0,0.0598,0.0638,0.0725,0.078,0.0804,0.0886,0.0948,0.0984,0.1059,0.1163,0.1222,0.1195,0.1239,0.1006,0.0678,0.0426,0.0183,0.0203,0.0093,-0.0109,-0.0269,-0.0371,-0.0447,0.0094,0.0094,0.0095,0.0095,0,0.0656,0.0681,0.0744,0.0855,0.0932,0.1036,0.1129,0.1207,0.1281,0.1401,0.1552,0.1611,0.1406,0.1174,0.0794,0.0578,0.0039,0.0198,-0.0034,-0.0283,-0.0383,-0.0493,0.009,0.0097,0.0097,0.0097,0.0096,0.0096,0.0698,0.0753,0.0831,0.0936,0.1038,0.1158,0.1263,0.1395,0.1564,0.1783,0.1821,0.2013,0.1603,0.1115,0.0768,0.0089,0.0068,-0.0149,-0.028,-0.0362,-0.0472,0.0138,0.0124,0.0124,0.0124,0.0124,0.0124,0,0.0747,0.0805,0.0908,0.1035,0.1155,0.1196,0.137,0.1505,0.1742,0.2025,0.2225,0.2193,0.1668,0.1085,0.0171,-0.0312,-0.0517,-0.0584,-0.0761,-0.0816,-0.029,-0.0308,-0.0387,-0.0387,-0.0387,-0.0387,-0.0386,-0.0386,0.0773,0.0864,0.0911,0.1098,0.1201,0.138,0.1489,0.1714,0.1953,0.2338,0.2545,0.2668,0.2197,0.0557,-0.0541,-0.0787,-0.1161,-0.1231,-0.1398,-0.1085,-0.1056,-0.1029,-0.1077,-0.1317,-0.1318,-0.1873,-0.1879,-0.1884]}],[{"header":{"parameterUnit":"m.s-1","parameterCategory":2,"la1":30.2991,"la2":30.254,"lo1":-89.0895,"lo2":-89.0444,"dy":0.0017,"dx":0.0017,"nx":28,"ny":28,"refTime":"2026-02-13T03:00:00:Z","depth":"2","parameterNumber":2,"parameterNumberName":"U-component_of_CURRENTS"},"data":[0,0,0,0,0,0,0,0,0,0,0,0,0,0,0,0,0,0,0,0,0,0,0,0,0,0,0,0,0,0,0,0,0,0,0,0,0,0,0,0,0,0,0,0,0,0,0,0,0,0,0,0,0,0,0,0,0,0,0.272,0.2721,0,0.276,0.276,0.276,0.2764,0.2764,0.2764,0.2764,0.2776,0.2776,0.2777,0,0,0,0,0,0,0,0,0,0,0,0,0,0.2662,0.2663,0.272,0.2721,0.2722,0.276,0.276,0.276,0.2764,0.2764,0.2764,0.2764,0.2775,0.2776,0.2777,0,0,0,0,0,0,0,0,0,0,0,0,0,0.269,0.2663,0.272,0.273,0.2732,0.2759,0.276,0.276,0.2764,0.2764,0.2764,0.2764,0.2775,0.2776,0.2777,0.2785,0,0,0.2779,0.2779,0,0,0,0,0,0,0,0,0.2689,0.2692,0.2728,0.273,0.2732,0.2759,0.2744,0.2768,0.2764,0.2749,0.2764,0.2763,0.277,0.2771,0.2775,0.2786,0.2786,0.2779,0.2779,0.2779,0.278,0,0,0,0,0,0,0,0.2687,0.2691,0.2733,0.2729,0.2731,0.2738,0.2741,0.2748,0.2757,0.275,0.2751,0.276,0.277,0.2774,0.2775,0.2787,0.2779,0.2779,0.278,0.278,0.2855,0.2856,0,0,0,0,0,0,0.2687,0.2689,0.2732,0.2735,0.2712,0.2739,0.2743,0.2748,0.2758,0.276,0.276,0.276,0.2773,0.2775,0.2776,0.2828,0.2779,0.278,0.2781,0.2853,0.2855,0.2857,0,0,0,0,0,0,0.2686,0.269,0.273,0.2715,0.2721,0.2741,0.2747,0.2749,0.2764,0.2766,0.2768,0.2774,0.2773,0.2775,0.2799,0.2827,0.278,0.2781,0.2852,0.2854,0.2856,0.2907,0,0,0,0,0,0,0.2684,0.269,0.2697,0.2715,0.2722,0.2757,0.2747,0.275,0.2771,0.2771,0.2779,0.2779,0.2773,0.2799,0.28,0.2827,0.2782,0.285,0.2853,0.2855,0.2903,0.2911,0.2917,0,0,0,0,0,0.2681,0.269,0.2696,0.2702,0.273,0.2758,0.2762,0.2773,0.2772,0.2784,0.2793,0.2779,0.2819,0.28,0.2802,0.283,0.2848,0.2852,0.2855,0.29,0.2909,0.2917,0,0,0,0,0,0,0.2665,0.2692,0.2699,0.2715,0.2741,0.276,0.2774,0.2782,0.2798,0.2801,0.2796,0.2798,0.2833,0.2826,0.2806,0.2862,0.2832,0.2837,0.2866,0.2875,0.2881,0.2895,0.2782,0,0,0,0,0,0.2667,0.2682,0.2709,0.2724,0.2738,0.2759,0.2773,0.2784,0.2801,0.2808,0.2815,0.2827,0.2848,0.2856,0.287,0.2896,0.2916,0.2917,0.2924,0.293,0.2943,0.2997,0.301,0.2869,0.2869,0.2869,0,0,0.2664,0.2682,0.269,0.2722,0.2741,0.2769,0.2766,0.2795,0.2821,0.2807,0.2842,0.2852,0.2862,0.2896,0.2911,0.2893,0.2984,0.2934,0.2939,0.295,0.3002,0.3016,0.3028,0.2871,0.2871,0.287,0,0,0.2669,0.2685,0.2702,0.2728,0.2766,0.2783,0.2795,0.2825,0.2843,0.2878,0.2881,0.2912,0.293,0.2951,0.2962,0.3016,0.3021,0.3019,0.3062,0.3113,0.3126,0.3136,0.3193,0.3209,0.3019,0.3019,0.3019,0,0.2666,0.269,0.2712,0.274,0.2765,0.2791,0.2821,0.2846,0.2881,0.2905,0.2895,0.2958,0.2961,0.3019,0.3038,0.3033,0.3065,0.3026,0.3123,0.3134,0.3144,0.32,0.3216,0.3022,0.3022,0.3021,0.3021,0,0.2685,0.2711,0.2726,0.2769,0.28,0.283,0.2872,0.2904,0.2927,0.2953,0.3016,0.3032,0.307,0.3078,0.3073,0.3151,0.3153,0.3127,0.31,0.3162,0.3216,0.3232,0.3026,0.3025,0.3024,0.3023,0,0,0.2663,0.2726,0.2732,0.2758,0.2819,0.2843,0.2899,0.2956,0.3005,0.3038,0.3101,0.314,0.3155,0.317,0.3178,0.3222,0.3319,0.3208,0.321,0.3264,0.345,0.3409,0.3423,0.3312,0.3315,0.3317,0.3464,0,0.2673,0.2719,0.2756,0.2807,0.2835,0.2886,0.2937,0.2994,0.305,0.3117,0.3155,0.3218,0.319,0.3224,0.3262,0.3312,0.3363,0.3283,0.3384,0.3388,0.3342,0.344,0.3163,0.3267,0.3479,0.3482,0.3484,0,0.2679,0.2711,0.2756,0.2828,0.2848,0.2885,0.2979,0.3033,0.3136,0.3187,0.3257,0.3292,0.3376,0.3337,0.3454,0.3407,0.3437,0.3465,0.3471,0.3426,0.3377,0.3238,0.3288,0.3511,0.3509,0.3507,0.3505,0,0.2642,0.2712,0.2745,0.2769,0.2854,0.2891,0.2944,0.3048,0.3116,0.3246,0.3312,0.3401,0.3465,0.3518,0.3571,0.3527,0.3699,0.3639,0.3634,0.3631,0.3413,0.3386,0.3726,0.3725,0.3725,0.3725,0.3724,0,0.2633,0.266,0.2729,0.2747,0.2804,0.2872,0.2956,0.3036,0.3162,0.325,0.3343,0.3431,0.3515,0.3608,0.3631,0.3701,0.375,0.3675,0.3677,0.3424,0.3398,0.361,0.3594,0.373,0.3729,0.3728,0.3727,0,0.2585,0.263,0.2671,0.2754,0.2787,0.2827,0.2956,0.3015,0.3153,0.3278,0.3326,0.3488,0.3619,0.37,0.3816,0.3783,0.3849,0.3854,0.3562,0.3526,0.373,0.3715,0.3869,0.3869,0.3869,0.3869,0.3869,0,0.2566,0.2577,0.266,0.2684,0.2723,0.2797,0.2848,0.2995,0.3073,0.3299,0.335,0.3535,0.363,0.3805,0.3815,0.3882,0.3907,0.3638,0.3494,0.3764,0.375,0.3735,0.3722,0.323,0.3225,0.3221,0.3217,0,0.2523,0.2549,0.2584,0.263,0.2678,0.2726,0.2818,0.2883,0.3056,0.3163,0.3312,0.3414,0.3615,0.3566,0.3676,0.366,0.3604,0.3555,0.3931,0.3237,0.3174,0.3156,0.3161,0.3179,0.3183,0.3186,0.3188,0.3189,0.2487,0.2496,0.2534,0.2568,0.2611,0.2624,0.2629,0.2738,0.2829,0.2963,0.3152,0.3221,0.3325,0.3355,0.3291,0.3248,0.3482,0.3305,0.3312,0.3326,0.3226,0.3167,0.3153,0.3156,0.3159,0.3162,0.3164,0,0.2418,0.2435,0.2467,0.2471,0.2447,0.2525,0.2577,0.2544,0.2584,0.2769,0.2873,0.273,0.2765,0.2864,0.2754,0.2782,0.2697,0.2656,0.2504,0.2549,0.2587,0.2441,0.2163,0.2159,0.2156,0.2152,0,0,0.2388,0.2373,0.2383,0.2304,0.2311,0.2251,0.2257,0.2228,0.2304,0.2318,0.2371,0.2648,0.2799,0.2431,0.2414,0.226,0.2366,0.2176,0.2995,0.2861,0.2893,0.3,0.2834,0,0,0,0,0]},{"header":{"parameterUnit":"m.s-1","parameterCategory":2,"la1":30.2991,"la2":30.254,"lo1":-89.0895,"lo2":-89.0444,"dy":0.0017,"dx":0.0017,"nx":28,"ny":28,"refTime":"2026-02-13T03:00:00:Z","depth":"2","parameterNumber":3,"parameterNumberName":"V-component_of_CURRENTS"},"data":[0,0,0,0,0,0,0,0,0,0,0,0,0,0,0,0,0,0,0,0,0,0,0,0,0,0,0,0,0,0,0,0,0,0,0,0,0,0,0,0,0,0,0,0,0,0,0,0,0,0,0,0,0,0,0,0,0,0,0.0099,0.0098,0,0.0031,0.003,0.003,-0.0014,-0.0015,-0.0015,-0.0015,-0.0072,-0.0073,-0.0075,0,0,0,0,0,0,0,0,0,0,0,0,0,0.0144,0.0143,0.0099,0.0098,0.0097,0.0031,0.003,0.0029,-0.0014,-0.0015,-0.0015,-0.0015,-0.0072,-0.0073,-0.0075,0,0,0,0,0,0,0,0,0,0,0,0,0,0.0104,0.0143,0.0099,0.0068,0.0065,0.0032,0.003,0.0029,-0.0014,-0.0015,-0.0015,-0.0015,-0.0071,-0.0073,-0.0075,-0.0081,0,0,-0.0081,-0.0082,0,0,0,0,0,0,0,0,0.0107,0.0103,0.0073,0.007,0.0066,0.0017,0.0025,-0.0007,-0.0014,0.0015,-0.0015,-0.0015,-0.0041,-0.0045,-0.0058,-0.0083,-0.0086,-0.0081,-0.0082,-0.0083,-0.0084,0,0,0,0,0,0,0,0.011,0.0105,0.0071,0.0073,0.0068,0.0042,0.0036,0.0019,-0.001,0.0012,0.0009,0.0003,-0.0043,-0.0056,-0.006,-0.0087,-0.0081,-0.0083,-0.0084,-0.0085,-0.0118,-0.0118,0,0,0,0,0,0,0.0122,0.0108,0.0074,0.0069,0.0087,0.0041,0.0035,0.0033,-0.0011,-0.0017,0.0003,0.0001,-0.0053,-0.0057,-0.0062,-0.0056,-0.0083,-0.0085,-0.0086,-0.0118,-0.0118,-0.0117,0,0,0,0,0,0,0.0123,0.012,0.0076,0.0087,0.008,0.0041,0.0039,0.0031,0.0021,-0.0018,-0.0024,0.0,-0.0053,-0.0059,-0.0073,-0.0059,-0.0086,-0.0088,-0.0118,-0.0118,-0.0118,-0.0053,0,0,0,0,0,0,0.0125,0.0121,0.0125,0.0089,0.008,0.0067,0.0039,0.003,0.0017,0.0014,-0.0022,-0.0028,-0.0054,-0.007,-0.0075,-0.0062,-0.0089,-0.0119,-0.0118,-0.0118,-0.0055,-0.005,-0.0045,0,0,0,0,0,0.0127,0.0138,0.0125,0.0121,0.0086,0.0068,0.0061,0.0031,0.0018,0.0019,-0.0008,-0.0027,-0.007,-0.0071,-0.0077,-0.0064,-0.0119,-0.0118,-0.0118,-0.0057,-0.0051,-0.0046,0,0,0,0,0,0,0.0157,0.0133,0.0119,0.0121,0.01,0.0061,0.0059,0.0038,0.0016,0.0015,-0.0023,-0.0031,-0.0039,-0.0061,-0.0062,-0.0073,-0.0098,-0.0098,-0.0049,-0.0044,-0.0039,-0.0021,-0.0091,0,0,0,0,0,0.0166,0.017,0.0139,0.014,0.0133,0.0097,0.0086,0.0068,0.0042,0.0032,0.0004,-0.0022,-0.0042,-0.0049,-0.0072,-0.0075,-0.0103,-0.0072,-0.0067,-0.0063,-0.0053,-0.0087,-0.0084,-0.0115,-0.0115,-0.0115,0,0,0.0177,0.0165,0.0166,0.0147,0.0128,0.0131,0.009,0.0081,0.0084,0.0031,0.0027,-0.0006,-0.004,-0.0046,-0.0052,-0.0062,-0.0069,-0.0062,-0.0058,-0.005,-0.0086,-0.0083,-0.008,-0.0115,-0.0115,-0.0115,0,0,0.0208,0.0192,0.0208,0.0197,0.0177,0.0158,0.016,0.0126,0.0112,0.01,0.0064,0.004,0.001,-0.0011,-0.0025,-0.0007,-0.0045,-0.0014,0.0029,-0.0005,-0.0002,-0.0,-0.003,-0.0032,-0.0009,-0.0009,-0.0009,0,0.0223,0.0238,0.0208,0.0221,0.0223,0.0177,0.0197,0.0175,0.0141,0.0137,0.011,0.0061,0.0028,0.0023,0.0025,0.0006,-0.002,0.0012,0.0003,0.0004,0.0005,-0.0027,-0.0029,-0.0006,-0.0006,-0.0006,-0.0007,0,0.0265,0.0277,0.0286,0.0291,0.0288,0.0296,0.0269,0.026,0.0234,0.0211,0.0191,0.0136,0.011,0.0091,0.0064,0.0058,0.0036,0.0011,-0.0009,0.0012,-0.0023,-0.0027,-0.0001,-0.0002,-0.0003,-0.0004,0,0,0.0298,0.0315,0.0318,0.034,0.0328,0.0335,0.034,0.0335,0.0349,0.0294,0.0302,0.0246,0.0209,0.019,0.0145,0.0111,0.0087,0.007,0.0066,0.0046,0.0016,-0.0012,-0.002,0.006,0.006,0.006,-0.001,0,0.0341,0.0392,0.0384,0.0432,0.0458,0.0429,0.0439,0.0428,0.0408,0.0402,0.0332,0.032,0.025,0.024,0.0193,0.0119,0.008,0.0109,-0.0007,-0.001,-0.0032,-0.0024,0.0003,-0.0058,-0.0014,-0.0015,-0.0015,0,0.0387,0.0418,0.0476,0.0515,0.0523,0.0539,0.0562,0.057,0.0544,0.0528,0.0492,0.0435,0.0381,0.0315,0.0192,0.0214,0.0124,0.0054,0.0049,-0.0,-0.0045,-0.0073,-0.0067,-0.0022,-0.0021,-0.0021,-0.002,0,0.0435,0.0485,0.0538,0.055,0.0579,0.0598,0.0612,0.0607,0.0641,0.0614,0.0627,0.0538,0.0508,0.0379,0.0227,0.0212,0.0087,0.0047,-0.0065,-0.0069,-0.008,-0.0083,-0.0042,-0.0042,-0.0041,-0.0041,-0.0041,0,0.0488,0.0531,0.0566,0.0595,0.0667,0.066,0.0731,0.0728,0.0747,0.0802,0.07,0.0716,0.0523,0.0423,0.0266,0.0096,0.0115,-0.0053,-0.0087,-0.0057,-0.0058,-0.0054,-0.0054,-0.0044,-0.0043,-0.0043,-0.0042,0,0.0534,0.0551,0.0622,0.0669,0.0692,0.0744,0.0827,0.088,0.0877,0.0945,0.0942,0.086,0.0728,0.0523,0.0322,0.0164,-0.0007,-0.0075,-0.0027,-0.0054,-0.0153,-0.0149,-0.0208,-0.0209,-0.0211,-0.0212,-0.0213,0,0.0562,0.06,0.0685,0.0742,0.0768,0.085,0.0911,0.0944,0.1021,0.1042,0.1088,0.0975,0.0924,0.0608,0.031,0.0028,-0.0008,-0.0139,-0.0171,-0.0142,-0.0169,-0.0163,-0.0158,-0.0162,-0.0162,-0.0163,-0.0163,0,0.0619,0.0644,0.0706,0.0824,0.0903,0.1011,0.1106,0.119,0.1236,0.128,0.1326,0.128,0.0975,0.0694,0.0291,0.0099,-0.0096,-0.0156,-0.0132,-0.0123,-0.0104,-0.0129,-0.0124,-0.0166,-0.0166,-0.0165,-0.0165,-0.0165,0.0662,0.0719,0.0801,0.0916,0.1019,0.1157,0.1263,0.1369,0.1489,0.157,0.1516,0.1453,0.1109,0.0607,0.0252,-0.0123,-0.0108,-0.0238,-0.0235,-0.0231,-0.0213,-0.0198,-0.0273,-0.0273,-0.0273,-0.0274,-0.0274,0,0.072,0.0785,0.0892,0.1029,0.1154,0.1203,0.1386,0.1488,0.1638,0.1698,0.1725,0.14,0.1068,0.0676,0.0117,-0.0219,-0.024,-0.032,-0.0272,-0.0266,-0.0262,-0.0244,-0.0313,-0.0314,-0.0315,-0.0316,0,0,0.0751,0.0857,0.0912,0.1117,0.1225,0.1403,0.1521,0.1657,0.175,0.1808,0.1776,0.1695,0.1204,0.0797,0.0331,0.0011,-0.0046,-0.0051,0.0017,0.0135,0.0144,-0.018,-0.0142,0,0,0,0,0]}],[{"header":{"parameterUnit":"m.s-1","parameterCategory":2,"la1":30.2991,"la2":30.254,"lo1":-89.0895,"lo2":-89.0444,"dy":0.0017,"dx":0.0017,"nx":28,"ny":28,"refTime":"2026-02-13T03:00:00:Z","depth":"4","parameterNumber":2,"parameterNumberName":"U-component_of_CURRENTS"},"data":[0,0,0,0,0,0,0,0,0,0,0,0,0,0,0,0,0,0,0,0,0,0,0,0,0,0,0,0,0,0,0,0,0,0,0,0,0,0,0,0,0,0,0,0,0,0,0,0,0,0,0,0,0,0,0,0,0,0,0.1816,0.1817,0,0.1899,0.19,0.19,0.1966,0.1967,0.1968,0.1969,0.206,0.2061,0.2063,0,0,0,0,0,0,0,0,0,0,0,0,0,0.172,0.1721,0.1816,0.1817,0.1818,0.1899,0.19,0.1901,0.1966,0.1967,0.1968,0.1969,0.2059,0.2061,0.2063,0,0,0,0,0,0,0,0,0,0,0,0,0,0.1776,0.1721,0.1816,0.1862,0.1867,0.1898,0.19,0.1901,0.1966,0.1967,0.1968,0.1969,0.2059,0.2061,0.2063,0.2054,0,0,0.2071,0.2072,0,0,0,0,0,0,0,0,0.1773,0.1779,0.1854,0.1859,0.1865,0.1925,0.1899,0.1953,0.1966,0.1926,0.1969,0.197,0.2016,0.2022,0.2032,0.2058,0.2062,0.2071,0.2073,0.2074,0.2075,0,0,0,0,0,0,0,0.1769,0.1776,0.1847,0.1855,0.1862,0.1881,0.189,0.191,0.1962,0.193,0.1935,0.1947,0.2019,0.2029,0.2035,0.2064,0.2071,0.2073,0.2075,0.2076,0.2203,0.2204,0,0,0,0,0,0,0.1761,0.1772,0.1844,0.185,0.1823,0.1881,0.1892,0.1903,0.1962,0.1972,0.1946,0.195,0.2024,0.2032,0.2038,0.2135,0.2074,0.2076,0.2078,0.2201,0.2203,0.2205,0,0,0,0,0,0,0.1758,0.1766,0.1841,0.1814,0.1825,0.1882,0.1894,0.1904,0.1954,0.1974,0.1985,0.1991,0.2026,0.2035,0.2095,0.2135,0.2077,0.208,0.2198,0.2201,0.2204,0.2262,0,0,0,0,0,0,0.1755,0.1765,0.1789,0.1814,0.1827,0.1885,0.1893,0.1905,0.1958,0.1965,0.2015,0.2023,0.2027,0.2091,0.2097,0.2138,0.2081,0.2196,0.22,0.2203,0.2258,0.2266,0.2274,0,0,0,0,0,0.1751,0.1772,0.1789,0.1799,0.1852,0.1886,0.1895,0.1937,0.1959,0.1986,0.2026,0.2023,0.2118,0.2095,0.2101,0.2143,0.2194,0.2199,0.2203,0.2254,0.2265,0.2274,0,0,0,0,0,0,0.1744,0.1781,0.1801,0.1834,0.187,0.1898,0.1933,0.1957,0.2009,0.203,0.2045,0.2056,0.2124,0.2126,0.21,0.2191,0.2156,0.2162,0.2193,0.2203,0.2211,0.2212,0.2084,0,0,0,0,0,0.1752,0.1781,0.1815,0.1847,0.1868,0.1908,0.1935,0.1964,0.2003,0.2029,0.2064,0.2103,0.2139,0.2166,0.2194,0.2242,0.2248,0.2275,0.2283,0.2289,0.2296,0.2338,0.235,0.2219,0.2219,0.2219,0,0,0.1759,0.1785,0.1803,0.1849,0.1883,0.1917,0.1929,0.1981,0.2021,0.2029,0.2107,0.2135,0.2159,0.2217,0.2247,0.2228,0.2333,0.2295,0.23,0.2303,0.2344,0.2356,0.2368,0.2222,0.2221,0.2221,0,0,0.1774,0.1813,0.1839,0.1872,0.193,0.1952,0.1975,0.2027,0.2067,0.2131,0.2152,0.2208,0.2262,0.2288,0.2305,0.2374,0.2374,0.239,0.2434,0.2475,0.2486,0.2495,0.2527,0.2539,0.2394,0.2394,0.2394,0,0.1786,0.182,0.1854,0.1888,0.1923,0.1971,0.2009,0.2051,0.2119,0.2155,0.2168,0.227,0.2293,0.2359,0.2389,0.2393,0.2415,0.2393,0.2485,0.2494,0.2503,0.2533,0.2546,0.2397,0.2397,0.2397,0.2396,0,0.1809,0.1853,0.1875,0.1932,0.1973,0.2018,0.2072,0.2128,0.2182,0.2219,0.2312,0.235,0.2408,0.2429,0.2433,0.2513,0.2508,0.2489,0.2457,0.252,0.2548,0.256,0.2402,0.2401,0.24,0.2399,0,0,0.1789,0.1874,0.1887,0.1921,0.2004,0.2033,0.2111,0.2182,0.2241,0.2313,0.2387,0.2458,0.2489,0.2511,0.2532,0.2573,0.2657,0.2567,0.2568,0.2593,0.2754,0.2591,0.2588,0.266,0.2662,0.2664,0.275,0,0.1802,0.1862,0.1909,0.1979,0.2013,0.2086,0.2151,0.2226,0.2299,0.2382,0.244,0.2521,0.2517,0.2567,0.2606,0.265,0.2691,0.2636,0.2694,0.2695,0.2538,0.2597,0.2671,0.2759,0.2761,0.2763,0.2765,0,0.1802,0.1845,0.191,0.2001,0.2027,0.2082,0.2195,0.2262,0.2379,0.2443,0.253,0.258,0.2672,0.2654,0.2755,0.2726,0.2749,0.277,0.2773,0.2607,0.2554,0.2682,0.2786,0.2784,0.2783,0.2781,0.278,0,0.1748,0.1843,0.1896,0.1928,0.2038,0.2095,0.2165,0.2283,0.2353,0.2497,0.2562,0.2664,0.2736,0.2785,0.2836,0.2812,0.2932,0.2895,0.2769,0.2758,0.2853,0.2841,0.296,0.296,0.296,0.296,0.2959,0,0.1719,0.1766,0.1881,0.1907,0.198,0.2075,0.2172,0.2262,0.2398,0.2471,0.2593,0.266,0.2777,0.285,0.2872,0.2857,0.2962,0.2786,0.277,0.2876,0.2867,0.2861,0.2849,0.2963,0.2962,0.2962,0.2961,0,0.1643,0.1721,0.1784,0.191,0.1954,0.2009,0.2163,0.2221,0.2376,0.248,0.2533,0.2692,0.2787,0.2874,0.2968,0.2888,0.2902,0.287,0.2996,0.2985,0.2692,0.2682,0.2725,0.272,0.2716,0.2712,0.2709,0,0.1603,0.1629,0.1764,0.18,0.1862,0.1963,0.2023,0.2191,0.2255,0.2467,0.2494,0.2657,0.2738,0.274,0.2847,0.2882,0.2849,0.283,0.2736,0.2688,0.267,0.2666,0.2662,0.2703,0.2701,0.27,0.2699,0,0.152,0.1586,0.1635,0.1713,0.1782,0.1844,0.195,0.1986,0.217,0.233,0.2401,0.2462,0.2564,0.2634,0.2691,0.2705,0.2823,0.2784,0.2792,0.2704,0.2661,0.2646,0.2647,0.2685,0.2687,0.2688,0.2689,0,0.1461,0.1473,0.155,0.1602,0.1678,0.1697,0.1772,0.1848,0.1938,0.2173,0.2192,0.2368,0.253,0.2545,0.2594,0.2603,0.2556,0.2455,0.2479,0.2496,0.2382,0.2292,0.2195,0,0,0,0,0,0.1388,0.1386,0.1428,0.1472,0.154,0.1584,0.1706,0.1787,0.1968,0.1959,0.2074,0.2159,0.2242,0.2341,0.2306,0.2498,0.2567,0.2446,0.2462,0.2603,0.262,0.2507,0,0,0,0,0,0,0.1336,0.1371,0.1384,0.1351,0.1355,0.1411,0.1479,0.1599,0.1612,0.1809,0.1871,0.202,0.2141,0.2238,0.226,0.2291,0.2254,0.2566,0.256,0.2593,0.2609,0.2622,0.2512,0,0,0,0,0]},{"header":{"parameterUnit":"m.s-1","parameterCategory":2,"la1":30.2991,"la2":30.254,"lo1":-89.0895,"lo2":-89.0444,"dy":0.0017,"dx":0.0017,"nx":28,"ny":28,"refTime":"2026-02-13T03:00:00:Z","depth":"4","parameterNumber":3,"parameterNumberName":"V-component_of_CURRENTS"},"data":[0,0,0,0,0,0,0,0,0,0,0,0,0,0,0,0,0,0,0,0,0,0,0,0,0,0,0,0,0,0,0,0,0,0,0,0,0,0,0,0,0,0,0,0,0,0,0,0,0,0,0,0,0,0,0,0,0,0,0.0092,0.0091,0,0.0045,0.0045,0.0044,0.0015,0.0015,0.0015,0.0014,-0.0029,-0.003,-0.0031,0,0,0,0,0,0,0,0,0,0,0,0,0,0.0122,0.0122,0.0092,0.0091,0.0091,0.0046,0.0045,0.0044,0.0015,0.0015,0.0014,0.0014,-0.0028,-0.0029,-0.0031,0,0,0,0,0,0,0,0,0,0,0,0,0,0.0095,0.0121,0.0092,0.0071,0.0068,0.0046,0.0045,0.0044,0.0015,0.0015,0.0014,0.0014,-0.0028,-0.0029,-0.0031,-0.0036,0,0,-0.0036,-0.0036,0,0,0,0,0,0,0,0,0.0097,0.0094,0.0074,0.0072,0.007,0.0036,0.004,0.0017,0.0015,0.0035,0.0014,0.0014,-0.0006,-0.001,-0.0018,-0.0038,-0.004,-0.0036,-0.0037,-0.0037,-0.0038,0,0,0,0,0,0,0,0.0099,0.0096,0.0073,0.0074,0.0071,0.0053,0.0049,0.0035,0.0016,0.0033,0.0031,0.0026,-0.0008,-0.0017,-0.002,-0.0041,-0.0036,-0.0037,-0.0038,-0.0039,-0.0065,-0.0065,0,0,0,0,0,0,0.0107,0.0098,0.0074,0.0072,0.0083,0.0052,0.0048,0.0047,0.0016,0.0011,0.0027,0.0025,-0.0014,-0.0018,-0.0021,-0.0016,-0.0037,-0.0039,-0.004,-0.0065,-0.0065,-0.0065,0,0,0,0,0,0,0.0108,0.0106,0.0076,0.0084,0.0079,0.0052,0.0051,0.0046,0.0039,0.0011,0.0006,0.0025,-0.0015,-0.0019,-0.003,-0.0019,-0.0039,-0.0041,-0.0066,-0.0065,-0.0065,-0.0015,0,0,0,0,0,0,0.0109,0.0106,0.011,0.0084,0.0079,0.007,0.0051,0.0045,0.0037,0.0034,0.0008,0.0003,-0.0015,-0.0027,-0.0031,-0.0021,-0.0042,-0.0066,-0.0065,-0.0065,-0.0016,-0.0013,-0.0009,0,0,0,0,0,0.011,0.0117,0.011,0.0107,0.0084,0.007,0.0066,0.0045,0.0037,0.0038,0.0019,0.0004,-0.0028,-0.0028,-0.0033,-0.0023,-0.0066,-0.0065,-0.0065,-0.0018,-0.0013,-0.0009,0,0,0,0,0,0,0.013,0.0114,0.0106,0.0107,0.0093,0.0066,0.0065,0.005,0.0035,0.0035,0.0007,0.0002,-0.0004,-0.0022,-0.0022,-0.0031,-0.0049,-0.005,-0.0012,-0.0008,-0.0004,0.001,-0.0043,0,0,0,0,0,0.0137,0.014,0.0119,0.0121,0.0116,0.0092,0.0084,0.0072,0.0054,0.0047,0.0027,0.0008,-0.0007,-0.0013,-0.003,-0.0032,-0.0058,-0.003,-0.0027,-0.0023,-0.0015,-0.0048,-0.0046,-0.0063,-0.0063,-0.0063,0,0,0.0145,0.0137,0.0138,0.0126,0.0113,0.0116,0.0087,0.0081,0.0084,0.0045,0.0044,0.0019,-0.0006,-0.001,-0.0014,-0.0022,-0.0033,-0.0023,-0.0019,-0.0013,-0.0047,-0.0046,-0.0044,-0.0063,-0.0063,-0.0063,0,0,0.0166,0.0156,0.0168,0.0161,0.0149,0.0136,0.0137,0.0114,0.0105,0.0098,0.0071,0.0054,0.0032,0.0016,0.0005,0.0019,-0.0014,0.0013,0.0046,0.0015,0.0016,0.0017,-0.0017,-0.002,0.0017,0.0017,0.0018,0,0.0177,0.0189,0.0169,0.0179,0.0182,0.015,0.0166,0.0151,0.0127,0.0125,0.0106,0.0069,0.0045,0.0041,0.0044,0.0028,0.0003,0.0034,0.002,0.0021,0.0021,-0.0015,-0.0018,0.002,0.002,0.0019,0.0019,0,0.0206,0.0218,0.0225,0.0231,0.0231,0.0238,0.022,0.0215,0.0198,0.0181,0.0167,0.0125,0.0107,0.0092,0.0073,0.0065,0.0044,0.0027,0.0012,0.0025,-0.0013,-0.0017,0.0023,0.0023,0.0022,0.0021,0,0,0.0227,0.0244,0.0247,0.0267,0.0262,0.0268,0.0274,0.0273,0.0285,0.0245,0.0251,0.021,0.0183,0.0168,0.0134,0.0103,0.0075,0.0071,0.0068,0.0042,0.0003,-0.0018,-0.0026,0.0056,0.0055,0.0055,-0.0024,0,0.0258,0.0298,0.0295,0.0336,0.0357,0.034,0.0351,0.0345,0.0332,0.0327,0.0273,0.0266,0.0213,0.0207,0.0167,0.0102,0.0066,0.0098,-0.001,-0.0013,-0.003,-0.003,0.0054,-0.0028,-0.0029,-0.003,-0.003,0,0.0289,0.0315,0.0363,0.04,0.0407,0.0425,0.0448,0.0456,0.0437,0.0426,0.0399,0.0355,0.0308,0.026,0.0149,0.0172,0.0096,0.0035,0.003,-0.0008,-0.0043,-0.0045,-0.0039,-0.0039,-0.0038,-0.0037,-0.0037,0,0.032,0.0364,0.0409,0.042,0.0451,0.0471,0.0487,0.0487,0.0514,0.0495,0.0504,0.0429,0.0401,0.0294,0.0163,0.0159,0.0032,0.001,-0.0084,-0.0087,-0.0066,-0.0066,-0.0069,-0.0069,-0.0068,-0.0068,-0.0068,0,0.0353,0.0391,0.0431,0.0455,0.0517,0.0519,0.0581,0.0581,0.0599,0.0636,0.0562,0.0561,0.0408,0.0314,0.0187,0.0037,0.0047,-0.0078,-0.0107,-0.0044,-0.0041,-0.007,-0.0069,-0.0071,-0.007,-0.007,-0.0069,0,0.0379,0.0401,0.0461,0.051,0.0535,0.058,0.0656,0.0698,0.0701,0.0746,0.0744,0.0663,0.0534,0.037,0.0192,0.0078,-0.0068,-0.0125,-0.0044,-0.0068,-0.0174,-0.0169,-0.0234,-0.0236,-0.0237,-0.0238,-0.0239,0,0.0394,0.0426,0.0508,0.0557,0.0585,0.066,0.0713,0.0748,0.08,0.0806,0.0827,0.072,0.064,0.0381,0.0193,-0.0057,-0.0097,-0.0176,-0.018,-0.0168,-0.019,-0.0184,-0.0178,-0.0241,-0.0241,-0.0241,-0.0241,0,0.0425,0.0454,0.0506,0.0608,0.0679,0.077,0.0848,0.0894,0.093,0.0932,0.0902,0.076,0.0608,0.0388,0.0189,0.0009,-0.0126,-0.0189,-0.0188,-0.0192,-0.0176,-0.0196,-0.0189,-0.0246,-0.0245,-0.0245,-0.0244,0,0.0449,0.0492,0.0564,0.0655,0.075,0.0846,0.0891,0.0945,0.099,0.0988,0.0972,0.0801,0.0701,0.0422,0.0241,0.0056,0.0003,-0.0059,-0.0065,-0.0063,0.0001,0.0047,0.0024,0,0,0,0,0,0.0472,0.0523,0.0608,0.0709,0.0804,0.0867,0.0965,0.1,0.103,0.1022,0.1003,0.0859,0.0582,0.0462,0.0275,0.0201,-0.004,-0.0028,-0.0116,-0.0268,-0.0263,-0.0221,0,0,0,0,0,0,0.0486,0.0564,0.0608,0.0736,0.0813,0.0927,0.0994,0.1021,0.1021,0.1016,0.0877,0.0802,0.0537,0.069,0.0268,0.021,0.0125,-0.0157,-0.0161,-0.0271,-0.0266,-0.0263,-0.0217,0,0,0,0,0]}]]